Starlink 5875

operational
NORAD ID: 57221 Int'l Des: 2023-094 Owner: SPXS Country: US Constellation: starlink
LEOCIRCULAR

Starlink 5875について

説明を読み込み中...

リアルタイム位置

3D地球を読み込み中...

次回通過

高度履歴

Altitude vs Time

uPlot chart will show altitude changes over time

軌道要素

1 57221U 23094D 25350.44274992 .00000513 00000-0 53085-4 0 9995
2 57221 43.0031 123.0003 0001378 268.9281 91.1404 15.02534110134597
Epoch: Dec 16, 2025 • Age: 33 hours

現在のステータス

高度 560.7 km
速度 7.58 km/s
衛星直下点 -10.80°S, 70.4°W
打ち上げ日 Jul 7, 2023
運用期間 2.4 years
タイプ internet

技術仕様

分類 Payload
質量 305.00 kg
乾燥質量 290.00 kg
総質量 305.00 kg
長さ 0.20 m
直径 2.80 m
スパン 9.00 m
形状 Box + pan
製造者 SPXS
バスタイプ Starlink
フェーズステータス In Orbit
所有者/国 SPXS/US

大規模コンステレーション

Loading constellations...